Preview of NWS' New Version of Forecast
This preview is not operational and should not be used for support decisions.

Regional Weather Roundup (RWR)

Issued by National Weather Service (NWS)

                            
000
ASUS45 KBOU 180810
RWRCO 

WEATHER ROUNDUP FOR COLORADO
NATIONAL WEATHER SERVICE DENVER/BOULDER CO
100 AM MST MON FEB 18 2019

NOTE: "FAIR" INDICATES FEW OR NO CLOUDS BELOW 12000 FEET WITH NO
SIGNIFICANT WEATHER AND/OR OBSTRUCTIONS TO VISIBILITY.

COZ001>005-013-030-031-180900-
...NORTHWEST COLORADO...
  
CITY           SKY/WX    TMP DP  RH WIND       PRES   REMARKS
CRAIG          CLOUDY    12   4  70 NE3       29.84S                  
HAYDEN         FAIR      12   2  64 E12       29.83S WCI  -2          
MEEKER         FAIR      15   5  64 E5        29.80S WCI   8          
RANGELY        CLOUDY    22  11  64 N3        29.86R                  
RABBIT EARS PA FAIR       5   1  85 S6        29.71S WCI  -6          
STEAMBOAT SPGS MOCLDY     7  -1  71 CALM      29.82S                  
WALDEN         MOCLDY    -6 -11  77 CALM      29.84S                  
$$

COZ006>008-011-180900-
...WEST CENTRAL VALLEYS...
  
CITY           SKY/WX    TMP DP  RH WIND       PRES   REMARKS
GRAND JUNCTION LGT SNOW  28  27  96 NW9       29.84R FOG     WCI  19  
MONTROSE       FAIR      26  11  52 E8        29.86R WCI  18          
EAGLE          MOCLDY    15   8  73 CALM      29.85S                  
RIFLE          CLOUDY    23  15  71 N3        29.82S                  
DELTA          CLOUDY    32  17  53 CALM      29.86R                  
NUCLA          FAIR      25  16  68 MISG      29.89R                  
$$

COZ017>023-064>068-180900-
...SOUTHWEST COLORADO...
  
CITY           SKY/WX    TMP DP  RH WIND       PRES   REMARKS
DURANGO        CLOUDY    19  19 100 E7        29.86S WCI  10          
CORTEZ         LGT SNOW  17  13  84 E5        29.88R FOG     WCI  10  
PAGOSA SPRINGS LGT SNOW  21  21 100 CALM      29.85S                  
TELLURIDE      FAIR      14   5  67 E3        29.79R                  
WOLF CREEK PAS CLOUDY     3   1  92 S18G33    29.76R WCI -17          
$$

COZ009-010-012-014-032>034-037-058>063-180900-
...CENTRAL COLORADO...
  
CITY           SKY/WX    TMP DP  RH WIND       PRES   REMARKS
ASPEN          FAIR      19   4  51 E6        29.75S WCI  11          
BUENA VISTA    LGT SNOW  15  10  79 E8        29.86R WCI   4          
COPPER MTN     CLOUDY     5  -6  61 SE12      29.68S WCI -11          
BERTHOUD PASS  CLOUDY    -4 -15  59 S18G25    29.67S WCI -26          
COTTONWOOD PAS LGT SNOW  12   9  85 E9        29.78S WCI   0          
GUNNISON       FAIR       2  -2  83 CALM      29.84R                  
GRANBY         FAIR       2  -3  80 CALM      29.82S                  
KREMMLING      CLOUDY     5   1  85 CALM      29.86S                  
LEADVILLE      LGT SNOW   6   4  91 SE3       29.75S FOG              
MONARCH PASS   CLOUDY     1  -2  85 MISG      29.80S                  
SALIDA         CLOUDY    17  14  85 SE15G22   29.94R WCI   3          
SUNLIGHT       MOCLDY     5   1  85 MISG      29.75S                  
WILKERSON PASS LGT SNOW   1  -4  78 S8G17     29.77R WCI -12          
$$

COZ069>075-180900-
...SAN LUIS VALLEY/SANGRE DE CRISTO MOUNTAINS...
  
CITY           SKY/WX    TMP DP  RH WIND       PRES   REMARKS
ALAMOSA        FAIR      13  11  92 S7        29.84R WCI   3          
DEL NORTE      CLOUDY    12   7  80 W7        29.84S WCI   1          
LA VETA PASS   NOT AVBL                                               
SAGUACHE       LGT SNOW  18  14  86 CALM      29.85R                  
$$

COZ035-036-038>040-180900-
...NORTHERN COLORADO FRONT RANGE...
  
CITY           SKY/WX    TMP DP  RH WIND       PRES   REMARKS
DENVER INTL AP LGT SNOW  11   5  77 E16       30.07S WCI  -6          
AURORA         NOT AVBL                                               
FRONT RANGE AP NOT AVBL                                               
ERIE MUNI ARPT CLOUDY    15   4  62 E6        30.16R WCI   6          
BOULDER MUN AP CLOUDY    16   7  67 E7        30.09R WCI   6          
CENTENNIAL     FLURRIES  12   7  80 E8        30.03R WCI   0          
BROOMFIELD     CLOUDY    14   5  67 E7        30.06S WCI   4          
FORT COLLINS   FLURRIES  12   2  64 E9        30.13R WCI   0          
LONGMONT       CLOUDY    17   5  60 E7        30.13R WCI   7          
$$

COZ041-046-047-076>085-087-088-180900-
...PIKES PEAK/PALMER DIVIDE AND SOUTHERN FOOTHILLS...
  
CITY           SKY/WX    TMP DP  RH WIND       PRES   REMARKS
COLO. SPRINGS  LGT SNOW  14  10  84 SE12      30.02R VSB 3/4 WCI   0  
A. F. ACADEMY  CLOUDY    14  10  85 S14       29.98S BLWGSNOWWCI  -1  
SCHRIEVER AFB  NOT AVBL                                               
CHEYENNE MTN   SNOW       9   7  92 S15       29.92S VSB 1/2 WCI  -8  
ELLICOTT       NOT AVBL                                               
FALCON         LGT SNOW  10   6  82 NE9       29.99S WCI  -2          
FORT CARSON    LGT SNOW  12   9  85 S12       30.04R FOG     WCI  -2  
LIMON          FLURRIES   8   3  80 N9        30.09R WCI  -5          
MONUMENT HILL  LGT SNOW   9   5  85 E7        29.98R WCI  -3          
CANON CITY     NOT AVBL                                               
WALSENBURG     NOT AVBL                                               
TRINIDAD       LGT SNOW  20  17  88 E18G26    29.98R FOG     WCI   5  
$$

COZ042>045-048>051-090-091-180900-
...NORTHEAST COLORADO...
  
CITY           SKY/WX    TMP DP  RH WIND       PRES   REMARKS
GREELEY ARPT   CLOUDY    10   1  67 E9        30.17R WCI  -3          
AKRON          CLOUDY     4  -3  73 NE14      30.16R WCI -14          
BURLINGTON     CLOUDY     8   0  69 N9        30.20R WCI  -5          
WRAY           CLOUDY     5   1  85 NW6       30.25R WCI  -6          
YUMA           CLOUDY     5   0  78 N8        30.21R WCI  -8          
STERLING       CLOUDY     5  -4  66 NE7       30.23R WCI  -7          
HOLYOKE        FAIR       5   0  78 NW7       30.25R WCI  -7          
FORT MORGAN      N/A      5  -4  66 NE9       30.20R WCI  -9          
$$

COZ086-089-092>099-180900-
...SOUTHEAST COLORADO...
  
CITY           SKY/WX    TMP DP  RH WIND       PRES   REMARKS
PUEBLO         LGT SNOW  15  12  88 SE14      30.13R FOG     WCI   0  
LA JUNTA       LGT SNOW  14  11  87 E10       30.18R VSB 1   WCI   1  
LAMAR          LGT SNOW  14   9  80 NE9       30.20R WCI   2          
SPRINGFIELD      N/A     13  12  96 NE12      30.13R WCI  -1          
$$